This is the latest recevied weather packets stored in our database for station/object KC2BRB-1. If no packets are shown the sender has not sent any weather packets the latest 10 day(s).
| Time | Temp. | Humidity | Pressure | Rain* | Wind** | Luminosity | Snow |
|---|---|---|---|---|---|---|---|
| 1777511571 | 26.11° C | 73% | 1009.9 hPa | 0 mm | - | - | - |
| 1777511271 | 26.11° C | 73% | 1009.9 hPa | 0 mm | - | - | - |
| 1777510971 | 26.67° C | 72% | 1009.8 hPa | 0 mm | - | - | - |
| 1777510878 | 26.67° C | 72% | 1009.8 hPa | 0 mm | - | - | - |
| 1777510671 | 26.67° C | 72% | 1009.8 hPa | 0 mm | - | - | - |
| 1777510371 | 27.22° C | 70% | 1009.8 hPa | 0 mm | - | - | - |
| 1777510026 | 27.22° C | 69% | 1009.3 hPa | 0 mm | - | - | - |
| 1777509771 | 27.22° C | 69% | 1009.3 hPa | 0 mm | - | - | - |
| 1777509640 | 27.22° C | 69% | 1009.3 hPa | 0 mm | - | - | - |
| 1777509471 | 27.22° C | 69% | 1009.3 hPa | 0 mm | - | - | - |
| 1777508972 | 27.78° C | 68% | 1009 hPa | 0 mm | - | - | - |
| 1777508871 | 27.78° C | 68% | 1009 hPa | 0 mm | - | - | - |
| 1777508775 | 28.33° C | 66% | 1009 hPa | 0 mm | - | - | - |
| 1777508571 | 28.33° C | 66% | 1009 hPa | 0 mm | - | - | - |
| 1777508479 | 28.33° C | 66% | 1009 hPa | 0 mm | - | - | - |
| 1777508271 | 28.33° C | 66% | 1009 hPa | 0 mm | - | - | - |
| 1777507971 | 28.89° C | 64% | 1008.8 hPa | 0 mm | - | - | - |
| 1777507671 | 28.89° C | 64% | 1008.8 hPa | 0 mm | - | - | - |
| 1777507371 | 29.44° C | 59% | 1008.7 hPa | 0 mm | - | - | - |
| 1777507125 | 29.44° C | 59% | 1008.7 hPa | 0 mm | - | - | - |
| 1777507071 | 29.44° C | 59% | 1008.7 hPa | 0 mm | - | - | - |
| 1777506771 | 30.56° C | 51% | 1008.7 hPa | 0 mm | - | - | - |
| 1777506471 | 30.56° C | 51% | 1008.7 hPa | 0 mm | - | - | - |
| 1777506172 | 31.11° C | 47% | 1008.7 hPa | 0 mm | - | - | - |
| 1777505907 | 31.11° C | 47% | 1008.7 hPa | 0 mm | - | - | - |
* Rain latest hour (hover to see other rain measurements)
** Current wind speed in m/s (hover to see current wind gust speed)